Liberia, Costa Rica

10:12 PM CST on July 20, 2017 (GMT -0600)
Daniel Oduber Quiros International

Weather History for MRLB - November, 2012

Change the Weather History Date:

Friday, November 9, 2012

  Actual Average Record
Temperature  
Mean Temperature 78 °F -  
Max Temperature 84 °F 86 °F 91 °F (2000)
Min Temperature 72 °F 72 °F 66 °F (2010)
Cooling Degree Days 13    
Growing Degree Days 28 (Base 50)    
Moisture  
Dew Point 67 °F    
Average Humidity 64    
Maximum Humidity 78    
Minimum Humidity 48    
Precipitation  
Precipitation 0.00 in - - ()
Sea Level Pressure  
Sea Level Pressure 29.83 in    
Wind  
Wind Speed 6 mph ()    
Max Wind Speed 10 mph    
Max Gust Speed -    
Visibility 7.7 miles    
Events Rain    
Averages and records for this station are not official NWS values.
T = Trace of Precipitation, MM = Missing Value Source: Averaged Metar Reports

Daily Weather History Graph

Daily Weather History Graph

Search for Another Location

Airport or City:

Trip Planner

Search our weather history database for the weather conditions in past years. The results will help you decide how hot, cold, wet, or windy it might be!

Date:

Astronomy

Nov. 09, 2012 Rise Set
Actual Time 5:35 AM CST 5:16 PM CST
Civil Twilight 5:13 AM CST 5:38 PM CST
Nautical Twilight 4:48 AM CST 6:03 PM CST
Astronomical Twilight 4:23 AM CST 6:29 PM CST
Moon 1:22 AM CST (11/9) 1:46 PM CST (11/9)
Length of Visible Light 12h 24m
Length of Day
11h 40m
Waning Crescent, 23% of the Moon is Illuminated
Nov 9
Waning Crescent
Nov 13
New
Nov 20
First Quarter
Nov 28
Full
Dec 6
Last Quarter

Hourly Weather History & Observations

Time (CST) Temp. Heat Index Dew Point Humidity Pressure Visibility Wind Dir Wind Speed Gust Speed Precip Events Conditions
6:00 AM 73 °F - 65 °F 69% 29.85 in 12 mi SSW 4.6 mph - -   Partly Cloudy
6:00 AM 73.4 °F - 64.4 °F 73% 29.84 in 6.2 mi SSW 4.6 mph - N/A   Scattered Clouds
7:00 AM 73.4 °F - 66.2 °F 78% 29.86 in 6.2 mi SSW 5.8 mph - N/A   Mostly Cloudy
8:00 AM 75.2 °F - 66.2 °F 73% 29.87 in 6.2 mi South 5.8 mph - N/A   Mostly Cloudy
9:00 AM 80 °F - 66 °F 53% 29.90 in 12 mi WSW 10.4 mph - -   Scattered Clouds
9:00 AM 80.6 °F 82.7 °F 66.2 °F 61% 29.88 in 6.2 mi WSW 10.4 mph - N/A   Mostly Cloudy
10:00 AM 84.2 °F 86.6 °F 66.2 °F 55% 29.87 in 6.2 mi WSW 10.4 mph - N/A   Mostly Cloudy
11:00 AM 84.2 °F 86.6 °F 66.2 °F 55% 29.86 in 6.2 mi West 6.9 mph - N/A   Mostly Cloudy
12:00 PM 84 °F - 67 °F 48% 29.84 in 12 mi WSW 9.2 mph - -   Overcast
12:00 PM 84.2 °F 87.3 °F 68.0 °F 58% 29.83 in 6.2 mi WSW 9.2 mph - N/A   Mostly Cloudy
1:00 PM 82.4 °F 85.4 °F 68.0 °F 62% 29.80 in 6.2 mi WSW 9.2 mph - N/A   Mostly Cloudy
2:00 PM 82.4 °F 85.4 °F 68.0 °F 62% 29.77 in 6.2 mi SSW 4.6 mph - N/A   Mostly Cloudy
3:00 PM 82 °F - 70 °F 58% 29.78 in 12 mi WSW 9.2 mph - -   Overcast
3:00 PM 82.4 °F 86.3 °F 69.8 °F 66% 29.76 in 6.2 mi WSW 9.2 mph - N/A   Mostly Cloudy
4:00 PM 80.6 °F 83.9 °F 69.8 °F 70% 29.77 in 6.2 mi SSW 4.6 mph - N/A   Mostly Cloudy
5:00 PM 80.6 °F 83.2 °F 68.0 °F 65% 29.78 in 6.2 mi East 10.4 mph - N/A   Mostly Cloudy
6:00 PM 79 °F - 68 °F 62% 29.83 in 12 mi West 4.6 mph - -   Overcast
6:00 PM 78.8 °F - 68.0 °F 69% 29.82 in 6.2 mi West 4.6 mph - N/A   Mostly Cloudy
7:00 PM 78.8 °F - 68.0 °F 69% 29.83 in 6.2 mi Calm Calm - N/A Rain Light Rain
8:00 PM 75.2 °F - 68.0 °F 78% 29.85 in 6.2 mi NW 5.8 mph - N/A   Mostly Cloudy